TimeCDT,TemperatureF,Dew PointF,Humidity,Sea Level PressureIn,VisibilityMPH,Wind Direction,Wind SpeedMPH,Gust SpeedMPH,PrecipitationIn,Events,Conditions,WindDirDegrees,DateUTC
12:53 AM,52.0,48.9,89,29.73,10.0,SSE,18.4,28.8,0.00,Rain,Light Rain,150,2013-10-15 05:53:00
1:20 AM,53.6,50.0,88,29.70,10.0,SSE,19.6,26.5,0.00,,Overcast,150,2013-10-15 06:20:00
1:53 AM,54.0,51.1,90,29.70,10.0,SSE,19.6,29.9,0.00,,Overcast,150,2013-10-15 06:53:00
2:53 AM,55.0,52.0,89,29.68,7.0,SSE,15.0,-,0.00,Rain,Light Rain,160,2013-10-15 07:53:00
3:53 AM,54.0,52.0,93,29.67,4.0,South,16.1,24.2,0.00,,Overcast,190,2013-10-15 08:53:00
4:53 AM,52.0,50.0,93,29.69,5.0,SW,17.3,-,0.02,,Overcast,230,2013-10-15 09:53:00
5:53 AM,48.9,46.9,93,29.71,4.0,WSW,17.3,23.0,N/A,,Overcast,240,2013-10-15 10:53:00
6:53 AM,48.0,45.0,89,29.72,9.0,WSW,18.4,25.3,N/A,,Overcast,240,2013-10-15 11:53:00
7:53 AM,46.0,43.0,89,29.74,10.0,WSW,23.0,29.9,N/A,,Overcast,240,2013-10-15 12:53:00
8:09 AM,46.4,42.8,87,29.73,10.0,WSW,16.1,29.9,N/A,,Overcast,240,2013-10-15 13:09:00
8:53 AM,45.0,42.1,90,29.76,8.0,SW,19.6,-,N/A,,Overcast,230,2013-10-15 13:53:00
9:53 AM,44.1,41.0,89,29.76,10.0,WSW,18.4,27.6,N/A,,Overcast,240,2013-10-15 14:53:00
10:53 AM,45.0,42.1,90,29.77,8.0,WSW,18.4,28.8,N/A,,Overcast,240,2013-10-15 15:53:00
11:53 AM,46.0,43.0,89,29.77,10.0,WSW,18.4,26.5,N/A,,Overcast,240,2013-10-15 16:53:00
12:53 PM,48.0,45.0,89,29.77,5.0,WSW,17.3,26.5,N/A,,Overcast,240,2013-10-15 17:53:00
1:53 PM,50.0,46.9,89,29.76,3.0,West,19.6,23.0,0.00,Rain,Light Rain,280,2013-10-15 18:53:00
2:02 PM,50.0,46.4,87,29.75,9.0,WNW,20.7,28.8,0.00,,Overcast,290,2013-10-15 19:02:00
2:40 PM,48.2,46.4,93,29.77,5.0,WNW,16.1,-,0.00,Rain,Light Rain,290,2013-10-15 19:40:00
2:53 PM,48.9,46.0,90,29.78,5.0,WNW,19.6,26.5,0.00,Rain,Light Rain,290,2013-10-15 19:53:00
3:04 PM,48.2,46.4,93,29.78,4.0,WNW,19.6,26.5,0.00,Rain,Light Rain,290,2013-10-15 20:04:00
3:11 PM,48.2,46.4,93,29.78,4.0,WNW,21.9,27.6,0.00,Rain,Light Rain,290,2013-10-15 20:11:00
3:53 PM,48.0,45.0,89,29.81,3.0,WNW,21.9,-,0.00,Rain,Light Rain,300,2013-10-15 20:53:00
4:07 PM,46.4,44.6,93,29.80,10.0,WNW,17.3,28.8,0.00,Rain,Light Rain,300,2013-10-15 21:07:00
4:53 PM,46.9,44.1,90,29.83,8.0,NW,18.4,27.6,0.00,,Overcast,310,2013-10-15 21:53:00
5:53 PM,46.9,43.0,86,29.86,10.0,NW,17.3,-,N/A,,Overcast,310,2013-10-15 22:53:00
6:53 PM,46.0,42.1,86,29.88,10.0,WNW,19.6,27.6,N/A,,Overcast,300,2013-10-15 23:53:00
7:53 PM,45.0,42.1,90,29.91,10.0,WNW,18.4,24.2,N/A,,Overcast,300,2013-10-16 00:53:00
8:20 PM,44.6,41.0,87,29.90,10.0,WNW,18.4,24.2,N/A,,Overcast,300,2013-10-16 01:20:00
8:53 PM,45.0,41.0,86,29.94,10.0,NW,16.1,26.5,N/A,,Overcast,310,2013-10-16 01:53:00
9:53 PM,44.1,41.0,89,29.96,8.0,NW,15.0,24.2,N/A,,Overcast,310,2013-10-16 02:53:00
10:37 PM,44.6,41.0,87,29.94,6.0,WNW,16.1,-,N/A,,Overcast,300,2013-10-16 03:37:00
10:50 PM,44.6,42.8,93,29.94,8.0,NW,16.1,-,N/A,,Overcast,310,2013-10-16 03:50:00
10:53 PM,44.1,41.0,89,29.96,8.0,WNW,16.1,-,N/A,,Overcast,300,2013-10-16 03:53:00
11:53 PM,44.1,42.1,93,29.96,6.0,NW,11.5,-,N/A,,Overcast,310,2013-10-16 04:53:00